Location: Bad Dürkheim
(49.4618°N, 8.1724°E)
Time: 20:54:31
(UTC+00:00)

Lacrosse 4 Rocket - Pass Details

Date: 14 June 2025
Orbit: 511 x 577 km, 68.0° (Epoch: 16 July)

Event Time Altitude Azimuth Distance (km) Brightness Sun altitude
Rises 20:54:14 0° 324° (NW) 2,767 7.3 -9.6°
Reaches altitude 10° 20:56:26 10° 323° (NW) 1,875 5.7 -9.8°
Maximum altitude 21:00:38 73° 239° (WSW) 605 1.5 -10.2°
Enters shadow 21:04:09 15° 156° (SSE) 1,606 3.0 -10.5°
